Location: Baia Mare
(47.6567°N, 23.5850°E)
Time: 03:48:00
(UTC+03:00)

ISS - Pass Details

Date: 11 May 2018
Orbit: 403 x 408 km, 51.6° (Epoch: 19 October)

Event Time Altitude Azimuth Distance (km) Brightness Sun altitude
Exits shadow 02:37:23 18° 92° (E) 1,085 -1.5 -22.4°
Drops below altitude 10° 02:38:29 10° 80° (E) 1,459 -0.7 -22.3°
Sets 02:40:42 0° 70° (ENE) 2,323 0.6 -22.2°
